Weather in Aleshnya

Russia / Oryol Oblast     53°00′51″N   36°29′50″E
temp.,
°C
wind,
m/s
gust,
m/s
humid.,
%
clouds,
%
prec.,
mm/h
press.,
hPa
HPBL,
m
1 july, fri
fri100:00+14nnw35745 0.0 101767
03:00+13n3576100 0.0 101877
06:00+13nnw37810 0.0 1017170
09:00+19nnw510670 0.0 1016568
12:00+21nne711606 0.4 10171648
15:00+20nne810520 0.4 10181549
18:00+18nne69600 0.0 10181429
21:00+13nne35740 0.0 102080
2 july, sat
sat200:00+10ene22780 0.0 102212
03:00+8nne33800 0.0 102336
06:00+10n39820 0.0 1024236
09:00+16nne59630 0.0 1023735
12:00+20nne67530 0.0 10231409
15:00+21n57505 0.0 10221521
18:00+21nnw46602 0.0 10211082
21:00+15nw47740 0.0 102092
3 july, sun
sun300:00+14nw46691 0.0 102084
03:00+13nw36745 0.0 102085
06:00+14nw397143 0.0 1019200
09:00+19nw597297 0.0 1019377
12:00+23nnw71058100 0.0 1018846
15:00+25n6858100 0.0 10171201
18:00+24nnw486852 0.1 1016655
21:00+20nw3379100 0.1 101723
4 july, mon
mon400:00+17nnw4108899 0.9 1018184
03:00+17nw35895 1.3 101766
06:00+17nnw24900 0.1 101798
09:00+22nne34720 0.1 1018443
12:00+25ne23570 0.0 10181130
15:00+26nne34523 0.0 10171860
18:00+26ne12565 0.0 10171581
21:00+21se22725 0.0 101817
5 july, tue
tue500:00+18sw118416 0.0 101811
03:00+17s33875 0.0 101847
06:00+18ssw358245 0.0 1019127
09:00+23ssw336980 0.1 1019429
12:00+26ssw3361100 0.3 10181040
15:00+27sw235645 1.5 10171453
18:00+27ssw33635 0.0 10161213
21:00+21s348125 0.1 101652